User: anonymous   Login
Location: Unspecified
(0.0000°N, 0.0000°E)
Time: 11:50:23
(UTC+00:00)
Language:

LILACSAT-1 - Orbit

View from above orbital plane
View from above orbital plane
View from above satellite
View from above satellite

Ground track
Ground track

The orbit data is extracted from the following two-line orbital elements,

1 42725U 98067ME  18169.06587212  .00020594  00000-0  17646-3 0  9993
2 42725  51.6365 353.6205 0004294 226.9931 133.0707 15.69383391 60659
Epoch (UTC): 18 June 2018 01:34:51
Eccentricity: 0.0004294
inclination: 51.6365°
perigee height: 358 km
apogee height: 363 km
right ascension of ascending node: 353.6205°
argument of perigee: 226.9931°
revolutions per day: 15.69383391
mean anomaly at epoch: 133.0707°
orbit number at epoch: 6065

The dashed part of the orbit path shows where the satellite is in the earth's shadow,  

DLR